Location: Binningen
(47.7924°N, 8.7261°E)
Time: 18:31:55
(UTC+00:00)

Cosmos 1656 Rocket - Pass Details

Date: 17 May 2021
Orbit: 794 x 848 km, 71.1° (Epoch: 20 June)

Event Time Altitude Azimuth Distance (km) Brightness Sun altitude
Exits shadow 22:08:28 35° 199° (SSW) 1,278 4.2 -20.7°
Maximum altitude 22:10:51 83° 115° (ESE) 826 3.5 -20.8°
Drops below altitude 10° 22:16:25 10° 29° (NNE) 2,431 6.7 -21.1°
Sets 22:18:53 0° 28° (NNE) 3,376 7.5 -21.2°
